Flag for U.S.A. Weather past 2 weeks in Waterbury, Connecticut, U.S.A.

Now
48 °F

Clear.


Feels Like: 45 °F
Forecast: 35 / 59 °F
Wind: 7 mph from Northeast

Location: Oxford


UV Index: 5 (Moderate)

Visibility: 10 mi


Pressure: 30.38 "Hg

Humidity: 43%

Dew point: 27 °F

Location of WaterburyLocation

Historic Weather in Waterbury

°F

Waterbury temperature yesterday

Maximum temperature yesterday: 48 °F (at 2:58 PM)
Minimum temperature yesterday: 28 °F (at 3:35 AM)
Average temperature yesterday: 35 °F

Past Weeks' High & Low Weather Summary

 TemperatureHumidityPressure
High70 °F (Apr 13, 2:45 PM)93% (Apr 8, 2:55 AM)30.74 "Hg (Apr 8, 2:55 AM)
Low27 °F (Apr 16, 5:55 AM)19% (Apr 10, 8:52 AM)29.38 "Hg (Apr 8, 2:45 PM)
Average44 °F60%30.08 "Hg
* Reported Apr 4 10:15 PM — Apr 19 10:35 PM, Waterbury, Weather by CustomWeather, © 2014

Note: Actual official high and low records may vary slightly from our data, if they occured in-between our weather recording intervals... More about our weather records

Advertising

Historic Weather Conditions — Data for Previous 24 hours

 ConditionsComfort  
Time TempWeatherWind HumidityBarometerVisibility
10:35 PM
Apr 19
46 °FClear.8 mph46%30.37 "Hg10 mi
10:15 PM48 °FClear.8 mph43%30.37 "Hg10 mi
9:55 PM46 °FClear.10 mph46%30.36 "Hg10 mi
9:35 PM48 °FClear.8 mph43%30.35 "Hg10 mi
9:15 PM52 °FClear.8 mph38%30.34 "Hg10 mi
8:45 PM52 °FPassing clouds.9 mph38%30.32 "Hg10 mi
6:45 PM55 °FPassing clouds.12 mph36%30.28 "Hg10 mi
5:45 PM59 °FPassing clouds.12 mph34%30.26 "Hg10 mi
4:45 PM61 °FPassing clouds.17 mph31%30.25 "Hg10 mi
3:45 PM61 °FSunny.20 mph31%30.24 "Hg10 mi
2:52 PM57 °FSunny.17 mph36%30.24 "Hg10 mi
1:48 PM57 °FSunny.15 mph36%30.24 "Hg10 mi
12:52 PM55 °FSunny.12 mph38%30.27 "Hg10 mi
11:55 AM55 °FSunny.14 mph38%30.27 "Hg10 mi
10:52 AM54 °FPassing clouds.12 mph41%30.28 "Hg10 mi
9:52 AM52 °FPassing clouds.12 mph47%30.27 "Hg10 mi
8:52 AM46 °FPassing clouds.9 mph62%30.26 "Hg10 mi
7:52 AM43 °FScattered clouds.3 mph66%30.25 "Hg10 mi
6:52 AM36 °FPassing clouds.3 mph75%30.24 "Hg10 mi
5:52 AM34 °FPassing clouds.3 mph75%30.22 "Hg10 mi
5:35 AM36 °FClear.No wind75%30.22 "Hg9 mi
5:15 AM36 °FClear.No wind75%30.22 "Hg7 mi
4:55 AM36 °FClear.No wind75%30.23 "Hg7 mi
4:35 AM36 °FClear.No wind75%30.23 "Hg7 mi
4:15 AM36 °FClear.No wind75%30.23 "Hg8 mi
3:55 AM36 °FClear.3 mph75%30.23 "Hg9 mi
3:35 AM36 °FClear.5 mph75%30.22 "Hg10 mi
3:15 AM36 °FClear.5 mph75%30.22 "Hg10 mi
2:55 AM36 °FClear.No wind75%30.22 "Hg10 mi
2:35 AM37 °FClear.3 mph70%30.22 "Hg10 mi
2:15 AM37 °FClear.No wind75%30.23 "Hg10 mi
1:55 AM37 °FClear.5 mph70%30.24 "Hg10 mi
1:35 AM37 °FClear.5 mph70%30.25 "Hg10 mi
1:15 AM37 °FClear.5 mph70%30.25 "Hg10 mi
12:55 AM37 °FClear.3 mph70%30.25 "Hg10 mi
12:35 AM37 °FClear.3 mph70%30.26 "Hg10 mi
12:15 AM37 °FClear.3 mph70%30.26 "Hg10 mi
11:55 PM
Apr 18
37 °FClear.3 mph70%30.26 "Hg10 mi
11:35 PM37 °FClear.5 mph70%30.26 "Hg10 mi
11:15 PM37 °FClear.No wind70%30.26 "Hg10 mi
Weather by CustomWeather, © 2014

See weather overview